Date,TemperatureHighF,TemperatureAvgF,TemperatureLowF,DewpointHighF,DewpointAvgF,DewpointLowF,HumidityHigh,HumidityAvg,HumidityLow,PressureMaxIn,PressureMinIn,WindSpeedMaxMPH,WindSpeedAvgMPH,GustSpeedMaxMPH,PrecipitationSumIn
2013-9-1,87,77,70,-100,-100,-100,0,0,100,0.00,40.00,0,-999,0,0.00
2013-9-2,82,72,64,-100,-100,-100,0,0,100,0.00,40.00,0,-999,0,0.00
2013-9-3,89,72,56,-100,-100,-100,0,0,100,0.00,40.00,0,-999,0,0.00
2013-9-4,87,73,58,-100,-100,-100,0,0,100,0.00,40.00,0,-999,0,0.00
2013-9-5,89,76,62,-100,-100,-100,0,0,100,0.00,40.00,0,-999,0,0.00
2013-9-6,97,79,67,-100,-100,-100,0,0,100,0.00,40.00,0,-999,0,0.00
2013-9-7,104,86,70,-100,-100,-100,0,0,100,0.00,40.00,0,-999,0,0.00
2013-9-8,109,90,73,-100,-100,-100,0,0,100,0.00,40.00,0,-999,0,0.00
2013-9-9,101,88,73,-100,-100,-100,0,0,100,0.00,40.00,0,-999,0,0.00
2013-9-10,100,84,69,-100,-100,-100,0,0,100,0.00,40.00,0,-999,0,0.00
2013-9-11,102,82,67,-100,-100,-100,0,0,100,0.00,40.00,0,-999,0,0.00
2013-9-12,86,78,71,-100,-100,-100,0,0,100,0.00,40.00,0,-999,0,0.00
2013-9-13,77,68,56,-100,-100,-100,0,0,100,0.00,40.00,0,-999,0,0.00
2013-9-14,84,67,51,-100,-100,-100,0,0,100,0.00,40.00,0,-999,0,0.00
2013-9-15,92,73,65,-100,-100,-100,0,0,100,0.00,40.00,0,-999,0,0.00
2013-9-16,65,61,60,-100,-100,-100,0,0,100,0.00,40.00,0,-999,0,0.00
2013-9-17,80,68,62,-100,-100,-100,0,0,100,0.00,40.00,0,-999,0,0.00
2013-9-18,79,70,67,-100,-100,-100,0,0,100,0.00,40.00,0,-999,0,0.00
2013-9-19,96,79,68,-100,-100,-100,0,0,100,0.00,40.00,0,-999,0,0.00
2013-9-20,73,65,58,-100,-100,-100,0,0,100,0.00,40.00,0,-999,0,0.00
2013-9-21,83,63,51,-100,-100,-100,0,0,100,0.00,40.00,0,-999,0,0.00
2013-9-22,83,65,52,-100,-100,-100,0,0,100,0.00,40.00,0,-999,0,0.00
2013-9-23,81,68,55,-100,-100,-100,0,0,100,0.00,40.00,0,-999,0,0.00
2013-9-24,72,67,62,-100,-100,-100,0,0,100,0.00,40.00,0,-999,0,0.00
2013-9-25,85,66,56,-100,-100,-100,0,0,100,0.00,40.00,0,-999,0,0.00
2013-9-26,93,76,62,-100,-100,-100,0,0,100,0.00,40.00,0,-999,0,0.00
2013-9-27,91,78,68,-100,-100,-100,0,0,100,0.00,40.00,0,-999,0,0.00
2013-9-28,75,67,58,-100,-100,-100,0,0,100,0.00,40.00,0,-999,0,0.00
2013-9-29,80,62,45,-100,-100,-100,0,0,100,0.00,40.00,0,-999,0,0.00
2013-9-30,84,65,48,-100,-100,-100,0,0,100,0.00,40.00,0,-999,0,0.00